Flag for Sudan Weather past 2 weeks in Khartoum, Sudan

Now
84 °F

Clear.


Feels Like: 85 °F
Forecast: 84 / 104 °F
Wind: 14 mph from South

Location: Khartoum Airport

Current Time: Sep 1, 2015 at 5:26:20 AM

Latest Report: Sep 1, 2015 at 5:00 AM


Visibility: 10 mi

Pressure: 29.80 "Hg

Humidity: 48%

Dew point: 63 °F

Location of KhartoumLocation

Historic Weather in Khartoum — Graph

°F

Khartoum temperature yesterday

Maximum temperature yesterday: 100 °F (at 3:00 PM)
Minimum temperature yesterday: 84 °F (at 5:00 AM)
Average temperature yesterday: 92 °F

Past Weeks' High & Low Weather Summary

 TemperatureHumidityPressure
High108 °F (Aug 20, 3:00 PM)83% (Aug 26, 9:00 AM)32.16 "Hg (Aug 26, 9:00 AM)
Low75 °F (Aug 26, 8:00 AM)14% (Aug 20, 5:00 PM)29.65 "Hg (Aug 21, 5:00 PM)
Average91 °F43%29.82 "Hg
* Reported Aug 17 4:00 AM — Sep 1 4:00 AM, Khartoum, Weather by CustomWeather, © 2015

Note: Actual official high and low records may vary slightly from our data, if they occured in-between our weather recording intervals... More about our weather records

Advertising

Khartoum weather history for previous 24 hours

 ConditionsComfort  
Time TempWeatherWind HumidityBarometerVisibility
4:00 AM
Tue, Sep 1
88 °FClear.14 mph43%29.83 "Hg10 mi
3:30 AMN/AClear.10 mphN/A29.80 "Hg10 mi
3:00 AM90 °FClear.9 mph43%29.80 "Hg10 mi
2:30 AMN/AClear.10 mphN/A29.80 "Hg10 mi
2:00 AM90 °FClear.8 mph38%29.80 "Hg10 mi
12:30 AMN/AClear.6 mphN/A29.86 "Hg10 mi
12:00 AM93 °FClear.3 mph32%29.89 "Hg10 mi
11:30 PM
Mon, Aug 31
N/AClear.5 mphN/A29.89 "Hg10 mi
11:00 PM93 °FClear.5 mph32%29.86 "Hg10 mi
10:30 PMN/AClear.5 mphN/A29.86 "Hg10 mi
10:00 PM93 °FClear.5 mph32%29.86 "Hg10 mi
9:30 PMN/AClear.3 mphN/A29.83 "Hg10 mi
9:00 PM95 °FClear.7 mph30%29.80 "Hg10 mi
8:30 PMN/AClear.7 mphN/A29.77 "Hg10 mi
8:00 PM97 °FClear.7 mph27%29.77 "Hg10 mi
7:30 PMN/AClear.7 mphN/A29.77 "Hg10 mi
7:00 PM99 °FSunny.7 mph24%29.77 "Hg10 mi
6:30 PMN/ASunny.9 mphN/A29.77 "Hg10 mi
6:00 PM100 °FSunny.10 mph21%29.77 "Hg10 mi
5:30 PMN/ASunny.7 mphN/A29.77 "Hg10 mi
5:00 PM100 °FSunny.10 mph21%29.77 "Hg10 mi
4:30 PMN/ASunny.12 mphN/A29.77 "Hg10 mi
3:30 PMN/ASunny.12 mphN/A29.80 "Hg10 mi
3:00 PM100 °FSunny.8 mph24%29.80 "Hg10 mi
2:30 PMN/ASunny.9 mphN/A29.89 "Hg10 mi
2:00 PM99 °FSunny.9 mph27%29.89 "Hg10 mi
1:30 PMN/ASunny.13 mphN/A29.89 "Hg10 mi
1:00 PM95 °FSunny.13 mph30%29.92 "Hg10 mi
12:30 PMN/ASunny.16 mphN/A29.92 "Hg10 mi
12:00 PM95 °FSunny.13 mph30%29.92 "Hg10 mi
11:30 AMN/ASunny.16 mphN/A29.92 "Hg10 mi
11:00 AM93 °FSunny.15 mph36%29.95 "Hg10 mi
10:30 AMN/ASunny.16 mphN/A29.95 "Hg10 mi
10:00 AM90 °FSunny.14 mph43%29.95 "Hg10 mi
9:30 AMN/ASunny.12 mphN/A29.95 "Hg10 mi
9:00 AM86 °FSunny.12 mph49%29.92 "Hg10 mi
8:30 AMN/ASunny.12 mphN/A29.92 "Hg10 mi
7:30 AMN/ASunny.9 mphN/A29.92 "Hg10 mi
7:00 AM84 °FSunny.6 mph58%29.89 "Hg10 mi
6:30 AMN/AClear.8 mphN/A29.89 "Hg10 mi
6:00 AM84 °FClear.9 mph55%29.89 "Hg10 mi
5:30 AMN/AClear.9 mphN/A29.89 "Hg10 mi
5:00 AM84 °FClear.12 mph55%29.89 "Hg10 mi
Weather by CustomWeather, © 2015

See weather overviewHow to use our weather pages